Regional Weather Roundup
Issued by NWS

Home | Current Version | Previous Version | Graphics & Text | Print | Product List | Glossary On
Versions: 1 2 3 4 5 6 7 8 9 10 11 12 13 14 15 16 17 18 19 20 21 22 23 24 25 26 27 28 29 30 31 32 33 34 35 36 37 38 39 40 41 42 43 44 45 46 47 48 49 50
000
ASUS45 KABQ 031101
RWRNM
WEATHER ROUNDUP FOR NEW MEXICO
NATIONAL WEATHER SERVICE ALBUQUERQUE NM
500 AM MDT SUN MAY 03 2015

NOTE: "FAIR" MEANS FEW OR NO CLOUDS BELOW 12,000 FEET AGL WITH NO
       SIGNIFICANT WEATHER OR OBSTRUCTIONS TO VISION.

      THIS PRODUCT IS RELEASED AS TWO VERSIONS.  ONE VERSION NEAR
      THE TOP OF THE HOUR CONTAINING PRELIMINARY DATA FROM ALBUQUERQUE
      AND OTHER STATIONS.  A FINAL VERSION WITH ADDITIONAL DATA IS
      ISSUED ABOUT 10 MINUTES AFTER THE HOUR.

NMZ501-503-504-510>518-031200-
NORTHWEST PLATEAU/NORTHCENTRAL MOUNTAINS

CITY           SKY/WX    TMP DP  RH WIND       PRES   REMARKS
FARMINGTON     CLOUDY    53  36  52 E5        30.02S
LOS ALAMOS     CLEAR     51  32  48 CALM      30.13S
SANTA FE       CLEAR     47  34  60 N9        30.07F
TAOS           PTCLDY    37  27  65 CALM      30.12S
ANGEL FIRE     FAIR      32  30  93 CALM      30.18S

$$
NMZ402-403-502-505>509-031200-
WESTCENTRAL MOUNTAINS/SOUTHWEST MOUNTAINS

CITY           SKY/WX    TMP DP  RH WIND       PRES   REMARKS
GALLUP         MOCLDY    43  37  79 CALM      30.09F
GRANTS         MOCLDY    37  35  92 CALM      30.12S
SILVER CITY      N/A     48  36  61 N9        30.07S

$$
NMZ407-409-411-412-031200-
SOUTHERN DESERTS

CITY           SKY/WX    TMP DP  RH WIND       PRES   REMARKS
LORDSBURG      FAIR      52  37  58 CALM      29.99S
DEMING         CLEAR     55  38  52 SW6       30.00R
LAS CRUCES     CLEAR     58  35  41 N6        29.99F
ALAMOGORDO     MOCLDY    68  34  28 NE9       29.97F
T OR C         PTCLDY    62  36  37 W6        30.00F

$$
NMZ519>523-031200-
CENTRAL VALLEYS/CENTRAL HIGHLANDS

CITY           SKY/WX    TMP DP  RH WIND       PRES   REMARKS
ALBUQUERQUE    MOCLDY    57  35  43 CALM      30.05S
DOUBLE EAGLE   PTCLDY    44  36  74 SW3       30.07F
MORIARTY ARPT  FAIR      42  32  67 NW6       30.08F
CLINES CORNERS CLOUDY    48  31  51 W6        30.10S
BELEN          PTSUNNY   56  38  51 CALM      30.04S
SOCORRO        MOCLDY    60  38  43 S3        30.01F

$$
NMZ524>526-539-540-031200-
SOUTHCENTRAL MOUNTAINS

CITY           SKY/WX    TMP DP  RH WIND       PRES   REMARKS
RUIDOSO        NOT AVBL

$$
NMZ527>531-031200-
NORTHEAST HIGHLANDS/NORTHEAST PLAINS

CITY           SKY/WX    TMP DP  RH WIND       PRES   REMARKS
LAS VEGAS      PTCLDY    40  32  73 CALM      30.08F
RATON          CLEAR     45  33  63 E7        30.04R
CLAYTON        CLEAR     57  37  47 W10       29.95S

$$
NMZ532>537-031200-
EASTCENTRAL PLAINS

CITY           SKY/WX    TMP DP  RH WIND       PRES   REMARKS
TUCUMCARI      CLEAR     59  41  51 W10       29.91S
CANNON AFB     NOT AVBL
CLOVIS AIRPORT PTCLDY    55  43  62 CALM      29.95F

$$
NMZ028-029-538-031200-
SOUTHEAST PLAINS

CITY           SKY/WX    TMP DP  RH WIND       PRES   REMARKS
ROSWELL        CLEAR     53  43  68 N3        29.93R
ARTESIA        CLEAR     55  46  71 SE8       29.93F
CARLSBAD       CLEAR     56  46  69 S3        29.91R
HOBBS          PTCLDY    57  43  58 SE9       29.95S


$$



USA.gov is the U.S. government's official web portal to all federal, state and local government web resources and services.